Location: Guayaquil
(2.1667°S, 79.9000°W)
Time: 01:21:34
(UTC-05:00)

OTV 5 (USA 277) - Visible Passes

Search period start: 20 October 2019 00:00
Search period end: 30 October 2019 00:00
Orbit: 310 x 324 km, 54.5° (Epoch: 17 October)

Date Brightness Start Highest point End Pass type
(mag) Time Alt. Az. Time Alt. Az. Time Alt. Az.
20 Oct ? 19:10:48 10° SSW 19:13:20 51° SE 19:13:20 51° SE visible
21 Oct ? 19:25:39 10° WSW 19:27:54 23° WNW 19:28:30 21° NW visible
24 Oct ? 18:36:13 10° W 18:37:13 12° WNW 18:38:14 10° NW visible
27 Oct ? 04:52:15 29° N 04:53:15 46° ENE 04:55:52 10° SE visible
28 Oct ? 05:07:19 25° WSW 05:07:43 26° WSW 05:10:03 10° S visible
